Regional Weather Roundup
Issued by NWS Little Rock, AR

Home | Current Version | Previous Version | Text Only | Print | Product List | Glossary On
Versions: 1 2 3 4 5 6 7 8 9 10 11 12 13 14 15 16 17 18 19 20 21 22 23 24 25 26 27
000
ASUS44 KLZK 230205
RWRLZK

WEATHER ROUNDUP FOR ARKANSAS
NATIONAL WEATHER SERVICE LITTLE ROCK AR
900 PM CDT WED OCT 22 2014

NOTE: "FAIR" INDICATES FEW OR NO CLOUDS BELOW 12,000 FEET WITH NO
SIGNIFICANT WEATHER AND/OR OBSTRUCTIONS TO VISIBILITY.

ARZ001-003-010-029-230300-
NORTHWEST ARKANSAS

CITY           SKY/WX    TMP DP  RH WIND       PRES   REMARKS
FAYETTEVILLE   CLEAR     53  51  93 CALM      30.17S
FORT SMITH     CLEAR     62  53  72 SE6       30.15S
HARRISON       CLEAR     54  49  83 SE7       30.19S
BENTONVILLE    CLEAR     61  50  67 S6        30.17S
ROGERS         CLEAR     60  53  77 SE7       30.18R
SILOAM SPGS    CLEAR     59  48  67 SE7       30.17R
HIGHFILL       CLEAR     58  52  80 S8        30.16R
SPRINGDALE     CLEAR     61  52  72 SE5       30.19R
$$

ARZ004-005-016-230300-
NORTH CENTRAL ARKANSAS

CITY           SKY/WX    TMP DP  RH WIND       PRES   REMARKS
BATESVILLE     CLEAR     54  43  66 N3        30.20R
FLIPPIN        CLEAR     54  45  71 CALM      30.20S
MTN HOME       CLEAR     54  46  74 E7        30.20R
$$

ARZ040-041-230300-
WEST CENTRAL ARKANSAS

CITY           SKY/WX    TMP DP  RH WIND       PRES   REMARKS
MENA           CLEAR     55  54  94 CALM      30.18R
MOUNT IDA      CLEAR     54  53  97 CALM      30.16R
$$

ARZ009-017-025-026-028-230300-
NORTHEAST ARKANSAS

CITY           SKY/WX    TMP DP  RH WIND       PRES   REMARKS
JONESBORO      CLEAR     50  45  83 NE5       30.19R
NEWPORT        CLEAR     51  45  80 NE6       30.20R
WALNUT RIDGE   CLEAR     50  36  57 NE9       30.19S
BLYTHEVILLE    CLEAR     51  44  77 E3        30.20S
$$

ARZ022-023-033-042-044-230300-
CENTRAL ARKANSAS

CITY           SKY/WX    TMP DP  RH WIND       PRES   REMARKS
LITTLE ROCK    CLEAR     57  44  62 N3        30.20R
N LITTLE ROCK  CLEAR     56  48  75 N3        30.20R
JACKSONVILLE   CLEAR     51  46  82 CALM      30.19R
SEARCY         CLEAR     50  45  83 N5        30.20R
HOT SPRINGS    CLEAR     56  50  80 CALM      30.19R
RUSSELLVILLE   CLEAR     54  51  90 CALM      30.19R
$$

ARZ036-230300-
EAST ARKANSAS

CITY           SKY/WX    TMP DP  RH WIND       PRES   REMARKS
WEST MEMPHIS   CLEAR     52  46  80 NE5       30.18R
$$

ARZ050-053-066-070-073-230300-
SOUTHWEST ARKANSAS

CITY           SKY/WX    TMP DP  RH WIND       PRES   REMARKS
ARKADELPHIA    FAIR      56  56 100 CALM      30.19R
CAMDEN         CLEAR     54  50  87 CALM      30.17R
TEXARKANA      CLEAR     60  53  77 E3        30.16R
EL DORADO      CLEAR     55  52  89 CALM      30.16R
DE QUEEN       CLEAR     56  56 100 CALM      30.15R FOG
$$

ARZ056-057-069-230300-
SOUTHEAST ARKANSAS

CITY           SKY/WX    TMP DP  RH WIND       PRES   REMARKS
PINE BLUFF     CLEAR     56  45  66 N3        30.17R
STUTTGART      CLEAR     54  45  71 NE5       30.18R
MONTICELLO     LGT RAIN  55  49  80 CALM      30.15R

$$





USA.gov is the U.S. government's official web portal to all federal, state and local government web resources and services.